TimeEST,TemperatureF,Dew PointF,Humidity,Sea Level PressureIn,VisibilityMPH,Wind Direction,Wind SpeedMPH,Gust SpeedMPH,PrecipitationIn,Events,Conditions,WindDirDegrees,DateUTC
12:40 AM,39.2,28.4,65,30.15,10.0,ENE,4.6,-,N/A,,Overcast,60,2013-01-03 05:40:00
12:50 AM,39.2,28.4,65,30.14,10.0,ENE,4.6,-,N/A,,Overcast,60,2013-01-03 05:50:00
12:54 AM,39.0,28.0,65,30.15,10.0,ENE,5.8,-,N/A,,Overcast,60,2013-01-03 05:54:00
1:07 AM,39.2,28.4,65,30.15,10.0,NE,3.5,-,N/A,,Overcast,40,2013-01-03 06:07:00
1:54 AM,39.0,28.9,67,30.17,10.0,NNE,4.6,-,N/A,,Overcast,30,2013-01-03 06:54:00
2:36 AM,37.4,28.4,70,30.16,10.0,ENE,3.5,-,N/A,,Overcast,70,2013-01-03 07:36:00
2:54 AM,37.9,28.9,70,30.16,10.0,ESE,3.5,-,N/A,,Overcast,110,2013-01-03 07:54:00
3:54 AM,37.9,28.9,70,30.16,10.0,NE,5.8,-,N/A,,Overcast,50,2013-01-03 08:54:00
4:54 AM,37.9,28.9,70,30.16,10.0,East,3.5,-,N/A,,Overcast,80,2013-01-03 09:54:00
5:01 AM,37.4,28.4,70,30.15,10.0,East,3.5,-,N/A,,Overcast,90,2013-01-03 10:01:00
5:54 AM,37.9,27.0,65,30.17,10.0,ENE,4.6,-,N/A,,Overcast,60,2013-01-03 10:54:00
6:54 AM,37.9,26.1,62,30.19,10.0,ENE,3.5,-,N/A,,Overcast,60,2013-01-03 11:54:00
7:54 AM,37.9,28.0,68,30.20,10.0,NNE,3.5,-,N/A,,Overcast,20,2013-01-03 12:54:00
8:54 AM,37.9,28.0,68,30.21,10.0,NNE,3.5,-,N/A,,Overcast,20,2013-01-03 13:54:00
9:54 AM,37.9,27.0,65,30.22,10.0,NNE,6.9,-,N/A,,Overcast,30,2013-01-03 14:54:00
10:54 AM,39.0,24.1,55,30.22,10.0,North,4.6,-,N/A,,Overcast,10,2013-01-03 15:54:00
11:54 AM,39.9,24.1,53,30.20,10.0,Variable,4.6,-,N/A,,Overcast,0,2013-01-03 16:54:00
12:54 PM,39.9,25.0,55,30.18,10.0,North,4.6,-,N/A,,Overcast,350,2013-01-03 17:54:00
1:54 PM,39.9,26.1,58,30.17,10.0,NNE,3.5,-,N/A,,Overcast,20,2013-01-03 18:54:00
2:54 PM,41.0,28.0,60,30.18,10.0,Calm,Calm,-,N/A,,Overcast,0,2013-01-03 19:54:00
3:54 PM,42.1,30.0,62,30.19,10.0,Calm,Calm,-,N/A,,Overcast,0,2013-01-03 20:54:00
4:16 PM,42.8,30.2,61,30.18,10.0,Calm,Calm,-,N/A,,Scattered Clouds,0,2013-01-03 21:16:00
4:54 PM,41.0,30.0,65,30.21,10.0,Calm,Calm,-,N/A,,Clear,0,2013-01-03 21:54:00
5:54 PM,39.9,28.9,65,30.22,10.0,Calm,Calm,-,N/A,,Clear,0,2013-01-03 22:54:00
6:54 PM,36.0,28.9,76,30.24,10.0,Calm,Calm,-,N/A,,Clear,0,2013-01-03 23:54:00
7:54 PM,35.1,28.9,78,30.26,9.0,Calm,Calm,-,N/A,,Clear,0,2013-01-04 00:54:00
8:54 PM,33.1,28.0,82,30.26,10.0,Calm,Calm,-,N/A,,Clear,0,2013-01-04 01:54:00
9:54 PM,30.9,27.0,85,30.27,7.0,Calm,Calm,-,N/A,,Clear,0,2013-01-04 02:54:00
10:54 PM,30.0,28.0,92,30.28,7.0,Calm,Calm,-,N/A,,Clear,0,2013-01-04 03:54:00
11:54 PM,35.1,25.0,67,30.28,10.0,WNW,4.6,-,N/A,,Clear,300,2013-01-04 04:54:00